Find Flock 4g-15

NORAD ID: 62678 Int'l Des: 2025-009 Owner: PLAN Country: US Constellation: planet operational
LEOCIRCULARRETROGRADESSO

現在のビュー

3D地球を読み込み中...

Flock 4g-15について

説明を読み込み中...

次回通過

Passes for default location (London). Set your location on the main map for personalized predictions.

高度履歴

Loading altitude history...

軌道要素

1 62678U 25009BX 26159.13919170 .00008341 00000-0 29693-3 0 9997
2 62678 97.4012 241.0583 0004238 8.1890 351.9419 15.29200262135167
Epoch: Jun 8, 2026 • Age: 5 hours

現在のステータス

高度 483.3 km
速度 7.62 km/s
衛星直下点 14.68°N, 34.89°E
打ち上げ日 Jan 14, 2025
運用期間 1.3 years
タイプ earth observation

技術仕様

分類 Payload
質量 5.70 kg
乾燥質量 5.70 kg
総質量 5.70 kg
長さ 0.30 m
直径 0.10 m
スパン 0.30 m
形状 Box+2 pan
製造者 PLAN
バスタイプ Cubesat 3U
フェーズステータス In Orbit
所有者/国 PLAN/US

Most Searched